Live-Position
3D-Globus wird geladen...
Über OneWeb SL0689
Group: 3 satellites
Beschreibung wird geladen...
Nächste Überflüge
Passes for default location (London). Set your location on the main map for personalized predictions.
Höhenverlauf
Loading altitude history...
No altitude history available
Zweizeiliger Elementsatz
1 61597U 24188D 26124.47272794 -.00000012 00000-0 -68945-4 0 9999
2 61597 87.8944 29.7367 0001509 82.7323 277.3976 13.11419593 78726
Epoch: 4. Mai 2026 •
Age: 10 hours
Aktueller Status
Höhe 1219.7 km
Geschwindigkeit 7.25 km/s
Subsatellitenpunkt 15.06°N,
26.23°E
Startdatum 20. Okt. 2024
Alter 1.5 years
Typ internet
Startgruppe
Unknown Vehicle •
OneWeb Launch 20 •
20 satellites
OneWeb SL0015
61594
OneWeb SL0687 61595
OneWeb SL0688 61596
OneWeb SL0690 61598
OneWeb SL0691 61599
OneWeb SL0692 61600
OneWeb SL0693 61601
OneWeb SL0695 61602
OneWeb SL0697 61603
OneWeb SL0698 61604
OneWeb SL0699 61605
OneWeb SL0700 61606
OneWeb SL0701 61607
OneWeb SL0702 61608
OneWeb SL0704 61609
OneWeb SL0705 61610
OneWeb SL0706 61611
OneWeb SL0707 61612
OneWeb SL0708 61613
Technische Details
Klassifizierung Payload
Masse 148.00 kg
Trockenmasse 140.00 kg
Gesamtmasse 148.00 kg
Länge 1.30 m
Durchmesser 1.00 m
Spannweite 5.00 m
Form Trapezoid+2 pan
Hersteller ONEWUS
Bus-Typ ARROW
Phasenstatus In Orbit
Besitzer/Staat ONEWEBE/UK
Most Searched
Loading...